Tracking 29892 objects as of 21-Nov-2024
HD Live streaming from Space Station
objects crossing your sky now

SL-16 DEB

Track SL-16 DEB now!
10-day predictions


NORAD ID: 18476
Int'l Code: 1987-041F
Perigee: 843.9 km
Apogee: 1,148.0 km
Inclination: 71.0 °
Period: 104.9 minutes
Semi major axis: 7366 km
RCS: 0.095 m2 (small)
Launch date: May 13, 1987
Source: Commonwealth of Independent States (former USSR) (CIS)
Launch site: TYURATAM MISSILE AND SPACE COMPLEX (TTMTR)

Note: This is SATELLITE DEBRIS
Your satellite tracking list
Your tracking list is empty




NASA's NSSDC Master Catalog

Two Line Element Set (TLE):
1 18476U 87041F   24325.15918649  .00000344  00000-0  35876-3 0  9998
2 18476  70.9886 211.3875 0206391 147.1331   7.1839 13.73012449879088
Source of the keplerian elements: AFSPC